Home > Weather > Eisenstadt > Past weeks

Flag for Austria Past Weather in Eisenstadt, Burgenland, Austria — Yesterday and Last 2 Weeks

Now
86 °F

Pleasantly warm.


Feels Like: 86 °F
Forecast: 64 / 83 °F
Wind: 5 mph from Southeast

Location: Eisenstadt

Current Time: Aug 28, 2016 at 4:10:23 PM

Latest Report: Aug 28, 2016 at 3:00 PM


Visibility: N/A

Pressure: 30.00 "Hg

Humidity: 40%

Dew Point: 59 °F

Location of EisenstadtLocation

Past Weather in Eisenstadt — Graph

°F

Eisenstadt Temperature Yesterday

Maximum temperature yesterday: 85 °F (at 2:00 PM)
Minimum temperature yesterday: 61 °F (at 4:00 AM)
Average temperature yesterday: 74 °F

High & Low Weather Summary for the Past Weeks

 TemperatureHumidityPressure
High86 °F (Aug 28, 2:00 PM)97% (Aug 20, 7:00 AM)30.33 "Hg (Aug 20, 7:00 AM)
Low56 °F (Aug 18, 3:00 AM)36% (Aug 26, 3:00 PM)29.80 "Hg (Aug 18, 4:00 PM)
Average69 °F70%30.07 "Hg
* Reported Aug 13 3:00 PM — Aug 28 3:00 PM, Eisenstadt, Weather by CustomWeather, © 2016

Note: Actual official high and low records may vary slightly from our data, if they occured in-between our weather recording intervals... More about our weather records

Advertising

Eisenstadt Weather History for the Previous 24 Hours

Scroll right to see more
 ConditionsComfort  
Time TempWeatherWind HumidityBarometerVisibility
3:00 PM
Sun, Aug 28
86 °FPleasantly warm.5 mph40%30.00 "HgN/A
2:00 PM86 °FSunny.5 mph37%30.02 "Hg12 mi
1:00 PM86 °FPleasantly warm.5 mph38%30.03 "HgN/A
12:00 PM83 °FWarm.6 mph41%30.04 "HgN/A
11:00 AM82 °FSunny.7 mph44%30.04 "Hg12 mi
10:00 AM79 °FWarm.6 mph55%30.04 "HgN/A
9:00 AM72 °FMild.2 mph71%30.05 "HgN/A
8:00 AM66 °FSunny.3 mph81%30.05 "Hg9 mi
7:00 AM64 °FSunny.3 mph85%30.05 "Hg9 mi
6:00 AM64 °FClear.2 mph86%30.05 "Hg9 mi
5:00 AM64 °FClear.3 mph88%30.05 "Hg9 mi
4:00 AM63 °FClear.1 mph87%30.06 "Hg9 mi
3:00 AM66 °FMild.1 mph78%30.06 "HgN/A
2:00 AM67 °FClear.1 mph77%30.07 "Hg9 mi
1:00 AM66 °FMild.1 mph83%30.09 "HgN/A
12:00 AM67 °FMild.1 mph79%30.09 "HgN/A
11:00 PM
Sat, Aug 27
68 °FClear.No wind79%30.09 "Hg9 mi
10:00 PM71 °FMild.1 mph72%30.09 "HgN/A
9:00 PM74 °FMild.2 mph65%30.09 "HgN/A
8:00 PM77 °FClear.3 mph57%30.07 "Hg12 mi
7:00 PM82 °FSunny.5 mph45%30.07 "Hg12 mi
6:00 PM84 °FWarm.7 mph42%30.07 "HgN/A
5:00 PM85 °FSunny.6 mph42%30.07 "Hg12 mi
4:00 PM85 °FWarm.7 mph41%30.09 "HgN/A
Weather by CustomWeather, © 2016

See weather overviewHow to use our weather pages